Location: ?????
(42.2640°N, 43.4211°E)
Time: 14:26:48
(UTC+00:00)

BREEZE-M TANK - Pass Details

Date: 07 August 2020
Orbit: 509 x 24778 km, 45.2° (Epoch: 19 September)

Event Time Altitude Azimuth Distance (km) Brightness Sun altitude
Exits shadow 00:35:47 - 288° (WNW) 1,997 4.9 -15.0°
Reaches altitude 10° 00:35:57 10° 288° (WNW) 1,918 4.8 -15.0°
Maximum altitude 00:39:31 82° 200° (SSW) 910 3.3 -14.4°
Drops below altitude 10° 00:50:30 10° 115° (ESE) 5,597 7.8 -12.8°
Sets 00:59:12 0° 116° (ESE) 9,116 8.9 -11.5°
